sat.trackr.live / text

‹ back to catalog

STARLINK-37946

NORAD 69672 · 2026-143Z

PAYLOAD ACTIVE UNKNOWN

§ Identity

Operator
Country
US
Launch date
2026-06-21
Launch site
AFWTR
Launch vehicle
Mass (kg)
RCS (m²)

Purposes: comms

External: N2YO · Heavens-Above · Gunter

§ Orbital elements

Epoch: 2026-09-20T02:15:09.636192Z

Period
93.91 min
Inclination
97.2851°
Eccentricity
0.0000939
Mean motion
15.33451669 rev/d
Perigee alt
464.9 km
Apogee alt
466.2 km
Semi-major
6,843.7 km
B*
3.6943e-4
RAAN
306.3391°
Arg perigee
118.8134°
Mean anomaly
241.3203°
Rev number
1,508

§ Raw data

STARLINK-379461 69672U 26143Z   26263.09386153  .00011873  00000+0  36943-3 0  99972 69672  97.2851 306.3391 0000939 118.8134 241.3203 15.33451669 15088

JSON: /api/v1/satellites/69672 · /tle

For live sub-satellite position, see the globe view (requires WebGL).

§ Visibility from observer

Set your observer location to see the next 7 days of passes ≥ 10°. The values pass through the URL so the page stays shareable.

No JS? Fill the form by hand. The geolocation button needs JavaScript.